TimeMST,TemperatureF,Dew PointF,Humidity,Sea Level PressureIn,VisibilityMPH,Wind Direction,Wind SpeedMPH,Gust SpeedMPH,PrecipitationIn,Events,Conditions,WindDirDegrees,DateUTC
1:15 AM,20.8,7.3,56,30.20,10.0,WNW,3.5,-,N/A,,Clear,290,2013-01-10 08:15:00
1:35 AM,20.8,7.3,56,30.20,10.0,NW,9.2,-,N/A,,Clear,320,2013-01-10 08:35:00
1:55 AM,20.1,7.0,57,30.19,10.0,Calm,Calm,-,N/A,,Clear,0,2013-01-10 08:55:00
2:15 AM,19.4,6.8,58,30.19,10.0,NW,5.8,-,N/A,,Clear,310,2013-01-10 09:15:00
2:35 AM,19.0,6.8,59,30.17,10.0,NW,4.6,-,N/A,,Clear,320,2013-01-10 09:35:00
2:55 AM,18.9,6.4,58,30.17,10.0,NNW,8.1,-,N/A,,Clear,330,2013-01-10 09:55:00
3:15 AM,18.0,6.3,60,30.15,10.0,WNW,5.8,-,N/A,,Clear,290,2013-01-10 10:15:00
3:35 AM,17.6,6.3,61,30.15,10.0,WNW,4.6,-,N/A,,Clear,290,2013-01-10 10:35:00
3:55 AM,17.2,5.9,61,30.14,10.0,Calm,Calm,-,N/A,,Clear,0,2013-01-10 10:55:00
4:15 AM,17.1,5.7,61,30.13,10.0,Calm,Calm,-,N/A,,Clear,0,2013-01-10 11:15:00
4:35 AM,17.1,5.5,61,30.11,10.0,WNW,4.6,-,N/A,,Clear,290,2013-01-10 11:35:00
4:55 AM,16.5,5.4,62,30.10,10.0,NW,5.8,-,N/A,,Clear,310,2013-01-10 11:55:00
5:35 AM,15.4,5.0,63,30.09,10.0,NW,5.8,-,N/A,,Clear,320,2013-01-10 12:35:00
5:55 AM,15.4,5.0,63,30.08,10.0,NNW,4.6,-,N/A,,Clear,330,2013-01-10 12:55:00
6:15 AM,15.3,4.6,63,30.07,10.0,WNW,3.5,-,N/A,,Clear,290,2013-01-10 13:15:00
6:55 AM,14.9,4.5,63,30.06,10.0,NNW,4.6,-,N/A,,Clear,330,2013-01-10 13:55:00
7:35 AM,15.8,4.5,61,30.05,10.0,Calm,Calm,-,N/A,,Clear,0,2013-01-10 14:35:00
7:55 AM,16.0,4.5,60,30.05,10.0,NW,6.9,-,N/A,,Clear,310,2013-01-10 14:55:00
8:15 AM,16.3,4.5,60,30.04,10.0,Calm,Calm,-,N/A,,Clear,0,2013-01-10 15:15:00
8:35 AM,16.7,4.8,60,30.03,10.0,Calm,Calm,-,N/A,,Clear,0,2013-01-10 15:35:00
8:55 AM,17.8,5.2,58,30.03,10.0,Calm,Calm,-,N/A,,Clear,0,2013-01-10 15:55:00
9:15 AM,19.0,5.5,56,30.02,10.0,Calm,Calm,-,N/A,,Clear,0,2013-01-10 16:15:00
9:35 AM,21.2,5.9,52,30.01,10.0,NW,9.2,-,N/A,,Clear,320,2013-01-10 16:35:00
9:55 AM,22.1,6.1,50,30.00,10.0,NNW,3.5,-,N/A,,Clear,340,2013-01-10 16:55:00
10:15 AM,21.2,7.9,57,29.99,10.0,Calm,Calm,-,N/A,,Clear,0,2013-01-10 17:15:00
10:35 AM,22.8,8.1,53,29.98,10.0,NNE,3.5,-,N/A,,Clear,20,2013-01-10 17:35:00
10:55 AM,24.1,8.6,52,29.96,10.0,NNW,8.1,-,N/A,,Clear,340,2013-01-10 17:55:00
11:15 AM,26.1,9.0,49,29.95,10.0,North,4.6,-,N/A,,Clear,360,2013-01-10 18:15:00
11:35 AM,27.5,9.9,48,29.92,10.0,Calm,Calm,-,N/A,,Clear,0,2013-01-10 18:35:00
11:55 AM,29.7,9.5,43,29.90,10.0,Calm,Calm,-,N/A,,Clear,0,2013-01-10 18:55:00
12:15 PM,33.4,9.3,37,29.88,10.0,North,3.5,-,N/A,,Clear,360,2013-01-10 19:15:00
12:35 PM,35.4,8.8,33,29.87,10.0,NNW,6.9,-,N/A,,Clear,340,2013-01-10 19:35:00
12:55 PM,37.6,6.4,27,29.86,10.0,NNW,3.5,-,N/A,,Clear,330,2013-01-10 19:55:00
1:15 PM,39.0,6.8,26,29.85,10.0,North,5.8,-,N/A,,Clear,10,2013-01-10 20:15:00
1:35 PM,39.9,6.8,25,29.84,10.0,North,6.9,-,N/A,,Clear,360,2013-01-10 20:35:00
1:55 PM,40.5,4.3,22,29.83,10.0,North,4.6,-,N/A,,Clear,10,2013-01-10 20:55:00
2:15 PM,41.9,3.9,21,29.82,10.0,North,4.6,-,N/A,,Clear,350,2013-01-10 21:15:00
2:35 PM,42.1,3.9,21,29.82,10.0,NNW,3.5,-,N/A,,Clear,330,2013-01-10 21:35:00
2:55 PM,42.8,-0.4,16,29.81,10.0,SSW,10.4,18.4,N/A,,Clear,210,2013-01-10 21:55:00
3:15 PM,42.8,-0.6,16,29.80,10.0,South,15.0,20.7,N/A,,Clear,190,2013-01-10 22:15:00
3:35 PM,42.6,0.7,17,29.79,10.0,SSW,11.5,19.6,N/A,,Clear,200,2013-01-10 22:35:00
3:55 PM,40.1,2.8,21,29.78,10.0,SSW,13.8,17.3,N/A,,Clear,200,2013-01-10 22:55:00
4:15 PM,39.9,3.2,22,29.78,10.0,SW,9.2,21.9,N/A,,Clear,220,2013-01-10 23:15:00
4:35 PM,37.0,4.1,25,29.78,10.0,SW,10.4,-,N/A,,Clear,220,2013-01-10 23:35:00
4:55 PM,34.7,4.1,28,29.78,10.0,SSW,15.0,20.7,N/A,,Clear,210,2013-01-10 23:55:00
5:15 PM,33.4,4.5,30,29.78,10.0,SSW,16.1,20.7,N/A,,Clear,210,2013-01-11 00:15:00
5:35 PM,34.7,4.8,29,29.78,10.0,SSW,10.4,-,N/A,,Clear,200,2013-01-11 00:35:00
5:55 PM,36.1,5.4,28,29.77,10.0,South,9.2,18.4,N/A,,Clear,190,2013-01-11 00:55:00
6:15 PM,35.8,6.6,30,29.77,10.0,South,11.5,16.1,N/A,,Clear,190,2013-01-11 01:15:00
6:35 PM,36.5,8.1,31,29.76,10.0,South,15.0,21.9,N/A,,Clear,170,2013-01-11 01:35:00
6:55 PM,36.5,8.2,31,29.75,10.0,South,17.3,25.3,N/A,,Clear,180,2013-01-11 01:55:00
7:15 PM,36.0,8.1,31,29.76,10.0,SSW,11.5,21.9,N/A,,Scattered Clouds,200,2013-01-11 02:15:00
7:55 PM,35.2,8.6,33,29.76,10.0,South,16.1,26.5,N/A,,Scattered Clouds,180,2013-01-11 02:55:00
8:15 PM,34.9,9.3,35,29.77,10.0,South,12.7,19.6,N/A,,Mostly Cloudy,180,2013-01-11 03:15:00
8:35 PM,34.7,10.6,37,29.77,10.0,South,15.0,19.6,N/A,,Scattered Clouds,190,2013-01-11 03:35:00
8:55 PM,34.2,11.5,39,29.75,10.0,SSW,8.1,-,N/A,,Scattered Clouds,210,2013-01-11 03:55:00
9:15 PM,35.1,12.6,40,29.74,10.0,SSE,9.2,-,N/A,,Clear,160,2013-01-11 04:15:00
9:35 PM,34.0,13.1,42,29.74,10.0,Calm,Calm,-,N/A,,Clear,0,2013-01-11 04:35:00
9:55 PM,33.1,13.5,44,29.72,10.0,South,10.4,17.3,N/A,,Clear,180,2013-01-11 04:55:00
10:15 PM,33.1,15.4,48,29.71,10.0,South,15.0,21.9,N/A,,Clear,190,2013-01-11 05:15:00
10:35 PM,31.6,15.1,50,29.70,10.0,SW,12.7,20.7,N/A,,Clear,220,2013-01-11 05:35:00
10:55 PM,30.9,16.3,55,29.70,10.0,SSW,12.7,21.9,N/A,,Clear,200,2013-01-11 05:55:00
11:15 PM,32.2,18.0,56,29.68,10.0,SSW,16.1,28.8,N/A,,Clear,200,2013-01-11 06:15:00
11:35 PM,32.9,17.2,53,29.68,10.0,SSW,12.7,21.9,N/A,,Clear,200,2013-01-11 06:35:00
11:55 PM,32.2,16.5,53,29.66,10.0,South,13.8,20.7,N/A,,Clear,180,2013-01-11 06:55:00